CFG8MH EDDL-LGKO

Flight info

Callsign CFG8MH
Flight time N/A
Altitude 35000
Route DODEN1T DODEN Y853 BOMBI DCT DETEV DCT DINKU DCT BESNI DCT GOMIG DCT BEDOX DCT GUBOK DCT VEBAR DCT VABEK UL603 OLOTA DCT RUGAS DCT GIKAS DCT MES UN139 LURUS L995 KOPAR
Aircraft A21N/M-SDE3FGHIRWY/LB1

Departure

Time N/A
Airport Düsseldorf Airport (EDDL)

Arrival

Time 2026-05-04 17:27
Airport Kos International Airport "Ippokratis" (LGKO)
Time Latitude Longitude Altitude Speed Heading
2026-05-04 15:34 46.41526 15.58976 37028 ft 461 kts 133°
2026-05-04 15:34 46.35099 15.69190 37006 ft 461 kts 133°
2026-05-04 15:35 46.28663 15.79380 36995 ft 462 kts 133°
2026-05-04 15:36 46.22356 15.89961 36984 ft 463 kts 130°
2026-05-04 15:36 46.18381 15.96814 36976 ft 463 kts 130°
2026-05-04 15:37 46.14305 16.03821 36972 ft 462 kts 130°
2026-05-04 15:37 46.10162 16.10923 36972 ft 462 kts 130°
2026-05-04 15:38 46.06018 16.18007 36977 ft 462 kts 130°
2026-05-04 15:38 46.01979 16.24895 36984 ft 462 kts 130°
2026-05-04 15:39 45.97820 16.31968 36981 ft 463 kts 130°
2026-05-04 15:40 45.91559 16.42584 36982 ft 463 kts 130°
2026-05-04 15:40 45.87396 16.49621 36982 ft 463 kts 130°
2026-05-04 15:41 45.83295 16.56534 36986 ft 463 kts 130°
2026-05-04 15:41 45.79110 16.63568 36986 ft 463 kts 129°
2026-05-04 15:42 45.74930 16.70581 36989 ft 464 kts 130°
2026-05-04 15:42 45.70749 16.77575 36992 ft 464 kts 130°
2026-05-04 15:43 45.66532 16.84612 36993 ft 464 kts 130°
2026-05-04 15:43 45.62332 16.91604 36998 ft 464 kts 130°
2026-05-04 15:44 45.58130 16.98581 36997 ft 464 kts 130°
2026-05-04 15:44 45.53906 17.05577 36997 ft 464 kts 130°
2026-05-04 15:45 45.49748 17.12448 37004 ft 465 kts 130°
2026-05-04 15:45 45.45527 17.19404 37008 ft 465 kts 130°
2026-05-04 15:46 45.41693 17.25708 37011 ft 465 kts 130°
2026-05-04 15:46 45.37748 17.32181 37014 ft 465 kts 130°
2026-05-04 15:47 45.33532 17.39080 37019 ft 464 kts 130°
2026-05-04 15:47 45.29258 17.46056 37014 ft 465 kts 130°
2026-05-04 15:48 45.25039 17.52927 37006 ft 465 kts 130°
2026-05-04 15:48 45.18641 17.63314 37000 ft 465 kts 130°
2026-05-04 15:49 45.14375 17.70218 37001 ft 465 kts 130°
2026-05-04 15:49 45.10124 17.77079 37000 ft 465 kts 130°
2026-05-04 15:50 45.06022 17.83681 37006 ft 465 kts 130°
2026-05-04 15:50 45.01664 17.90359 37019 ft 465 kts 133°
2026-05-04 15:51 44.97235 17.96925 37017 ft 465 kts 133°
2026-05-04 15:51 44.92753 18.03556 37017 ft 465 kts 133°
2026-05-04 15:52 44.88276 18.10163 37016 ft 465 kts 133°
2026-05-04 15:52 44.83795 18.16764 37019 ft 466 kts 133°
2026-05-04 15:53 44.79313 18.23347 37029 ft 466 kts 133°
2026-05-04 15:53 44.74997 18.29676 37043 ft 466 kts 133°
2026-05-04 15:54 44.70549 18.36179 37041 ft 466 kts 132°
2026-05-04 15:54 44.66041 18.42756 37041 ft 466 kts 132°
2026-05-04 15:55 44.61531 18.49318 37042 ft 467 kts 132°
2026-05-04 15:55 44.57030 18.55854 37043 ft 467 kts 132°
2026-05-04 15:56 44.52514 18.62397 37048 ft 467 kts 132°
2026-05-04 15:56 44.47969 18.68966 37051 ft 468 kts 133°
2026-05-04 15:57 44.43440 18.75495 37061 ft 467 kts 133°
2026-05-04 15:57 44.38939 18.81964 37073 ft 467 kts 133°
2026-05-04 15:58 44.34396 18.88485 37076 ft 467 kts 133°
2026-05-04 15:58 44.29868 18.94967 37081 ft 467 kts 133°
2026-05-04 15:59 44.25318 19.01465 37082 ft 467 kts 133°
2026-05-04 15:59 44.20787 19.07921 37092 ft 467 kts 133°
2026-05-04 16:00 44.16238 19.14383 37094 ft 467 kts 133°
2026-05-04 16:00 44.11610 19.20724 37100 ft 469 kts 135°
2026-05-04 16:01 44.06843 19.26935 37098 ft 468 kts 135°
2026-05-04 16:01 44.02097 19.33101 37099 ft 469 kts 135°
2026-05-04 16:02 43.97477 19.39091 37093 ft 469 kts 135°
2026-05-04 16:03 43.90317 19.48352 37088 ft 469 kts 135°
2026-05-04 16:03 43.85621 19.54405 37101 ft 470 kts 135°
2026-05-04 16:04 43.80928 19.60443 37101 ft 470 kts 135°
2026-05-04 16:04 43.73871 19.69501 37112 ft 470 kts 135°
2026-05-04 16:05 43.69001 19.75731 37111 ft 470 kts 135°
2026-05-04 16:06 43.61791 19.84930 37118 ft 470 kts 135°
2026-05-04 16:07 43.52158 19.97169 37131 ft 471 kts 135°
2026-05-04 16:08 43.42518 20.09363 37129 ft 471 kts 135°
2026-05-04 16:09 43.30409 20.24602 37125 ft 471 kts 135°
2026-05-04 16:10 43.20805 20.36628 37129 ft 472 kts 135°
2026-05-04 16:11 43.11052 20.48784 37126 ft 473 kts 135°
2026-05-04 16:12 42.96804 20.66620 37134 ft 473 kts 134°
2026-05-04 16:13 42.87393 20.78988 37129 ft 474 kts 134°
2026-05-04 16:14 42.77830 20.91431 37126 ft 474 kts 133°
2026-05-04 16:16 42.65893 21.06877 37131 ft 474 kts 134°
2026-05-04 16:17 42.53938 21.22259 37136 ft 475 kts 134°
2026-05-04 16:18 42.44475 21.34373 37118 ft 474 kts 134°
2026-05-04 16:19 42.32489 21.49643 37110 ft 473 kts 133°
2026-05-04 16:20 42.20690 21.64676 37108 ft 472 kts 132°
2026-05-04 16:22 42.09022 21.80223 37093 ft 471 kts 133°
2026-05-04 16:23 41.95183 21.98479 37093 ft 472 kts 133°
2026-05-04 16:25 41.81081 22.16957 37114 ft 471 kts 133°
2026-05-04 16:26 41.64701 22.38275 37089 ft 469 kts 133°
2026-05-04 16:28 41.52973 22.53436 37099 ft 468 kts 133°
2026-05-04 16:29 41.41035 22.68788 37069 ft 467 kts 134°
2026-05-04 16:31 41.29870 22.82426 37064 ft 467 kts 140°
2026-05-04 16:32 41.14600 22.98562 37053 ft 466 kts 140°
2026-05-04 16:33 41.04425 23.09269 37052 ft 465 kts 140°
2026-05-04 16:34 40.96809 23.17252 37068 ft 467 kts 140°
2026-05-04 16:35 40.81907 23.32811 37074 ft 468 kts 140°
2026-05-04 16:36 40.74533 23.40477 37076 ft 469 kts 140°
2026-05-04 16:37 40.66752 23.48540 37079 ft 469 kts 140°
2026-05-04 16:38 40.56499 23.59129 37076 ft 469 kts 140°
2026-05-04 16:39 40.43672 23.72314 37079 ft 471 kts 140°
2026-05-04 16:40 40.33371 23.82857 37077 ft 470 kts 140°
2026-05-04 16:41 40.20441 23.96030 37080 ft 470 kts 140°
2026-05-04 16:43 40.07534 24.09116 37067 ft 470 kts 140°
2026-05-04 16:43 39.99796 24.16929 37072 ft 469 kts 141°
2026-05-04 16:45 39.84190 24.32617 37070 ft 473 kts 140°
2026-05-04 16:46 39.71402 24.45407 37082 ft 472 kts 140°
2026-05-04 16:47 39.67468 24.49328 37071 ft 473 kts 140°
2026-05-04 16:48 39.57052 24.59682 37071 ft 474 kts 140°
2026-05-04 16:49 39.46578 24.70114 37080 ft 476 kts 140°
2026-05-04 16:50 39.36165 24.80681 37076 ft 476 kts 140°
2026-05-04 16:51 39.28367 24.88553 37079 ft 476 kts 141°
2026-05-04 16:52 39.17916 24.99064 37077 ft 477 kts 141°
2026-05-04 16:53 39.10061 25.06933 37075 ft 477 kts 140°
2026-05-04 16:54 38.99572 25.17411 37076 ft 478 kts 141°
2026-05-04 16:55 38.83806 25.33079 37074 ft 479 kts 141°
2026-05-04 16:56 38.70658 25.46080 37073 ft 480 kts 141°
2026-05-04 16:57 38.62721 25.53897 37066 ft 480 kts 141°
2026-05-04 16:58 38.52412 25.64016 37072 ft 479 kts 141°
2026-05-04 17:00 38.36509 25.79555 37069 ft 480 kts 141°
2026-05-04 17:01 38.24239 25.90297 37065 ft 482 kts 152°
2026-05-04 17:02 38.17218 25.94263 36944 ft 483 kts 160°
2026-05-04 17:02 38.10893 25.97119 36329 ft 478 kts 160°
2026-05-04 17:03 38.07787 25.98515 35854 ft 477 kts 160°
2026-05-04 17:03 38.04666 25.99923 35576 ft 479 kts 160°
2026-05-04 17:03 37.98350 26.02784 34143 ft 485 kts 159°
2026-05-04 17:04 37.92229 26.05560 32631 ft 486 kts 158°
2026-05-04 17:04 37.88652 26.07182 31651 ft 489 kts 158°
2026-05-04 17:05 37.82200 26.10102 29928 ft 489 kts 157°
2026-05-04 17:05 37.75864 26.12972 28811 ft 476 kts 158°
2026-05-04 17:06 37.69783 26.15711 27813 ft 464 kts 158°
2026-05-04 17:06 37.66743 26.17079 27307 ft 458 kts 158°
2026-05-04 17:07 37.60808 26.19758 26302 ft 448 kts 156°
2026-05-04 17:07 37.59851 26.20257 26119 ft 446 kts 154°
2026-05-04 17:07 37.55248 26.23162 25114 ft 442 kts 149°
2026-05-04 17:07 37.52548 26.24960 24479 ft 441 kts 149°
2026-05-04 17:08 37.49805 26.26767 23830 ft 441 kts 150°
2026-05-04 17:08 37.44388 26.30270 22646 ft 437 kts 151°
2026-05-04 17:08 37.41656 26.32013 22103 ft 434 kts 151°
2026-05-04 17:09 37.38978 26.33714 21583 ft 431 kts 151°
2026-05-04 17:09 37.36315 26.35402 21075 ft 428 kts 151°
2026-05-04 17:09 37.33799 26.36995 20599 ft 425 kts 151°
2026-05-04 17:10 37.28563 26.40302 19588 ft 420 kts 152°
2026-05-04 17:10 37.20762 26.45222 18088 ft 413 kts 152°
2026-05-04 17:11 37.18508 26.46640 17667 ft 411 kts 152°
2026-05-04 17:11 37.17202 26.47461 17421 ft 409 kts 152°
2026-05-04 17:11 37.13689 26.49668 16773 ft 405 kts 152°
2026-05-04 17:12 37.11149 26.51262 16304 ft 402 kts 152°
2026-05-04 17:12 37.06195 26.54369 15372 ft 396 kts 152°
2026-05-04 17:13 36.98877 26.58953 13974 ft 388 kts 151°
2026-05-04 17:14 36.91700 26.63442 12590 ft 380 kts 152°
2026-05-04 17:14 36.89321 26.64928 12114 ft 378 kts 152°
2026-05-04 17:14 36.84659 26.67854 11180 ft 372 kts 150°
2026-05-04 17:15 36.82523 26.69678 10711 ft 367 kts 138°
2026-05-04 17:15 36.79115 26.74130 10348 ft 341 kts 129°
2026-05-04 17:16 36.76067 26.78428 10047 ft 317 kts 129°
2026-05-04 17:16 36.71689 26.84480 8927 ft 311 kts 129°
2026-05-04 17:17 36.70242 26.86491 8558 ft 308 kts 127°
2026-05-04 17:17 36.67141 26.93221 7496 ft 295 kts 111°
2026-05-04 17:18 36.66248 26.95515 7148 ft 292 kts 111°
2026-05-04 17:18 36.64475 27.00004 6434 ft 288 kts 111°
2026-05-04 17:19 36.62705 27.04417 5791 ft 282 kts 111°
2026-05-04 17:19 36.60971 27.08727 5267 ft 272 kts 111°
2026-05-04 17:20 36.59441 27.12777 5153 ft 242 kts 95°
2026-05-04 17:20 36.60157 27.16419 4703 ft 212 kts 58°
2026-05-04 17:20 36.60675 27.17881 4525 ft 207 kts 59°
2026-05-04 17:21 36.61946 27.20796 4024 ft 187 kts 27°
2026-05-04 17:21 36.64214 27.20901 3557 ft 168 kts 335°
2026-05-04 17:22 36.65204 27.20210 3431 ft 160 kts 331°
2026-05-04 17:22 36.66147 27.19484 3224 ft 158 kts 330°
2026-05-04 17:23 36.68787 27.17417 2648 ft 139 kts 330°
2026-05-04 17:23 36.69620 27.16769 2449 ft 140 kts 330°
2026-05-04 17:23 36.71281 27.15478 2068 ft 140 kts 330°
2026-05-04 17:24 36.72095 27.14844 1883 ft 135 kts 330°
2026-05-04 17:24 36.72976 27.14157 1714 ft 130 kts 330°
2026-05-04 17:25 36.73207 27.13978 1656 ft 129 kts 330°
2026-05-04 17:25 36.74730 27.12800 1306 ft 128 kts 329°
2026-05-04 17:26 36.75954 27.11829 1033 ft 127 kts 328°
2026-05-04 17:26 36.78192 27.10096 524 ft 125 kts 329°
2026-05-04 17:27 36.79468 27.09108 420 ft 60 kts 329°
2026-05-04 17:27 36.79750 27.08984 420 ft 16 kts 355°
2026-05-04 17:28 36.79944 27.08971 420 ft 8 kts 339°
2026-05-04 17:29 36.80009 27.09013 420 ft 3 kts 88°
2026-05-04 17:29 36.80009 27.09023 420 ft 0 kts 88°